Time,TemperatureF,DewpointF,PressureIn,WindDirection,WindDirectionDegrees,WindSpeedMPH,WindSpeedGustMPH,Humidity,HourlyPrecipIn,Conditions,Clouds,dailyrainin,SoftwareType,DateUTC
2013-03-07 00:00:00,35.5,9.0,21.39,WSW,248,5.4,8.3,33,0.00,,,0.00,WUHU216HW,2013-03-07 07:00:00,
2013-03-07 00:05:00,35.5,9.0,21.39,North,0,4.0,8.3,33,0.00,,,0.00,WUHU216HW,2013-03-07 07:05:00,
2013-03-07 00:10:00,35.3,9.5,21.39,West,270,7.6,7.6,34,0.00,,,0.00,WUHU216HW,2013-03-07 07:10:00,
2013-03-07 00:15:00,35.3,9.5,21.39,WSW,248,1.8,8.5,34,0.00,,,0.00,WUHU216HW,2013-03-07 07:15:00,
2013-03-07 00:20:00,35.3,10.2,21.39,West,270,6.9,8.5,35,0.00,,,0.00,WUHU216HW,2013-03-07 07:20:00,
2013-03-07 00:25:00,35.1,9.4,21.39,West,270,6.5,9.2,34,0.00,,,0.00,WUHU216HW,2013-03-07 07:25:00,
2013-03-07 00:30:00,35.1,10.0,21.39,West,270,7.4,9.2,35,0.00,,,0.00,WUHU216HW,2013-03-07 07:30:00,
2013-03-07 00:35:00,34.9,9.8,21.39,WNW,293,5.4,8.5,35,0.00,,,0.00,WUHU216HW,2013-03-07 07:35:00,
2013-03-07 00:40:00,34.9,9.8,21.39,West,270,9.8,9.8,35,0.00,,,0.00,WUHU216HW,2013-03-07 07:40:00,
2013-03-07 00:45:00,34.9,9.8,21.39,West,270,4.5,9.8,35,0.00,,,0.00,WUHU216HW,2013-03-07 07:45:00,
2013-03-07 00:50:00,35.1,10.0,21.39,West,270,3.4,9.2,35,0.00,,,0.00,WUHU216HW,2013-03-07 07:50:00,
2013-03-07 00:56:00,35.1,10.0,21.39,WNW,293,1.1,8.9,35,0.00,,,0.00,WUHU216HW,2013-03-07 07:56:00,
2013-03-07 01:01:00,35.3,10.2,21.39,West,270,4.0,10.3,35,0.00,,,0.00,WUHU216HW,2013-03-07 08:01:00,
2013-03-07 01:06:00,35.3,10.2,21.39,West,270,2.2,10.3,35,0.00,,,0.00,WUHU216HW,2013-03-07 08:06:00,
2013-03-07 01:11:00,35.3,10.2,21.39,West,270,3.4,9.8,35,0.00,,,0.00,WUHU216HW,2013-03-07 08:11:00,
2013-03-07 01:16:00,35.1,10.0,21.40,West,270,5.6,9.8,35,0.00,,,0.00,WUHU216HW,2013-03-07 08:16:00,
2013-03-07 01:21:00,35.3,10.2,21.39,WNW,293,6.9,8.9,35,0.00,,,0.00,WUHU216HW,2013-03-07 08:21:00,
2013-03-07 01:26:00,35.1,10.0,21.39,West,270,2.9,8.9,35,0.00,,,0.00,WUHU216HW,2013-03-07 08:26:00,
2013-03-07 01:31:00,35.3,10.2,21.40,West,270,5.8,9.4,35,0.00,,,0.00,WUHU216HW,2013-03-07 08:31:00,
2013-03-07 01:36:00,35.5,10.3,21.40,West,270,0.7,9.4,35,0.00,,,0.00,WUHU216HW,2013-03-07 08:36:00,
2013-03-07 01:41:00,35.5,10.3,21.40,West,270,0.9,8.5,35,0.00,,,0.00,WUHU216HW,2013-03-07 08:41:00,
2013-03-07 01:46:00,35.5,10.3,21.39,West,270,5.4,9.4,35,0.00,,,0.00,WUHU216HW,2013-03-07 08:46:00,
2013-03-07 01:51:00,35.6,10.4,21.39,North,0,2.0,9.4,35,0.00,,,0.00,WUHU216HW,2013-03-07 08:51:00,
2013-03-07 01:56:00,35.5,10.3,21.40,WNW,293,2.2,6.9,35,0.00,,,0.00,WUHU216HW,2013-03-07 08:56:00,
2013-03-07 02:01:00,35.6,10.4,21.39,West,270,3.4,6.9,35,0.00,,,0.00,WUHU216HW,2013-03-07 09:01:00,
2013-03-07 02:06:00,35.6,10.4,21.39,East,90,0.4,6.9,35,0.00,,,0.00,WUHU216HW,2013-03-07 09:06:00,
2013-03-07 02:11:00,35.6,10.4,21.39,West,270,4.0,5.1,35,0.00,,,0.00,WUHU216HW,2013-03-07 09:11:00,
2013-03-07 02:16:00,35.6,10.4,21.39,WNW,293,3.4,6.3,35,0.00,,,0.00,WUHU216HW,2013-03-07 09:16:00,
2013-03-07 02:21:00,35.6,10.4,21.39,West,270,4.0,6.3,35,0.00,,,0.00,WUHU216HW,2013-03-07 09:21:00,
2013-03-07 02:26:00,35.6,10.4,21.39,SSW,203,0.0,6.0,35,0.00,,,0.00,WUHU216HW,2013-03-07 09:26:00,
2013-03-07 02:31:00,35.6,10.4,21.39,ENE,68,0.9,6.0,35,0.00,,,0.00,WUHU216HW,2013-03-07 09:31:00,
2013-03-07 02:36:00,35.5,10.9,21.39,WNW,293,0.0,3.4,36,0.00,,,0.00,WUHU216HW,2013-03-07 09:36:00,
2013-03-07 02:41:00,35.5,10.9,21.38,West,270,0.7,3.4,36,0.00,,,0.00,WUHU216HW,2013-03-07 09:41:00,
2013-03-07 02:46:00,35.5,10.9,21.38,West,270,0.4,3.4,36,0.00,,,0.00,WUHU216HW,2013-03-07 09:46:00,
2013-03-07 02:51:00,35.5,10.9,21.38,West,270,0.9,4.7,36,0.00,,,0.00,WUHU216HW,2013-03-07 09:51:00,
2013-03-07 02:56:00,35.6,11.1,21.38,West,270,0.2,4.7,36,0.00,,,0.00,WUHU216HW,2013-03-07 09:56:00,
2013-03-07 03:01:00,35.6,11.1,21.38,West,270,0.7,4.9,36,0.00,,,0.00,WUHU216HW,2013-03-07 10:01:00,
2013-03-07 03:06:00,35.6,11.1,21.38,East,90,0.4,4.9,36,0.00,,,0.00,WUHU216HW,2013-03-07 10:06:00,
2013-03-07 03:11:00,35.6,10.4,21.38,West,270,4.7,5.1,35,0.00,,,0.00,WUHU216HW,2013-03-07 10:11:00,
2013-03-07 03:16:00,35.6,11.1,21.38,West,270,1.8,5.1,36,0.00,,,0.00,WUHU216HW,2013-03-07 10:16:00,
2013-03-07 03:21:00,35.5,10.9,21.38,SE,135,0.4,4.7,36,0.00,,,0.00,WUHU216HW,2013-03-07 10:21:00,
2013-03-07 03:26:00,35.5,10.3,21.38,West,270,2.0,3.4,35,0.00,,,0.00,WUHU216HW,2013-03-07 10:26:00,
2013-03-07 03:31:00,35.6,11.1,21.38,West,270,0.7,5.4,36,0.00,,,0.00,WUHU216HW,2013-03-07 10:31:00,
2013-03-07 03:36:00,35.5,10.3,21.38,WSW,248,1.1,5.4,35,0.00,,,0.00,WUHU216HW,2013-03-07 10:36:00,
2013-03-07 03:41:00,35.6,10.4,21.38,West,270,2.2,3.4,35,0.00,,,0.00,WUHU216HW,2013-03-07 10:41:00,
2013-03-07 03:46:00,35.6,10.4,21.38,West,270,2.2,5.8,35,0.00,,,0.00,WUHU216HW,2013-03-07 10:46:00,
2013-03-07 03:51:00,35.6,10.4,21.38,WNW,293,3.1,9.2,35,0.00,,,0.00,WUHU216HW,2013-03-07 10:51:00,
2013-03-07 03:56:00,35.6,10.4,21.39,WNW,293,2.7,9.2,35,0.00,,,0.00,WUHU216HW,2013-03-07 10:56:00,
2013-03-07 04:01:00,35.5,10.3,21.38,West,270,1.3,8.5,35,0.00,,,0.00,WUHU216HW,2013-03-07 11:01:00,
2013-03-07 04:06:00,35.5,10.3,21.39,West,270,0.4,8.5,35,0.00,,,0.00,WUHU216HW,2013-03-07 11:06:00,
2013-03-07 04:11:00,35.5,10.3,21.39,East,90,1.3,4.0,35,0.00,,,0.00,WUHU216HW,2013-03-07 11:11:00,
2013-03-07 04:16:00,35.5,10.3,21.38,WSW,248,2.2,3.8,35,0.00,,,0.00,WUHU216HW,2013-03-07 11:16:00,
2013-03-07 04:21:00,35.1,10.6,21.39,SE,135,0.0,3.8,36,0.00,,,0.00,WUHU216HW,2013-03-07 11:21:00,
2013-03-07 04:26:00,34.7,10.4,21.39,ENE,68,0.0,1.8,36,0.00,,,0.00,WUHU216HW,2013-03-07 11:26:00,
2013-03-07 04:31:00,34.4,10.6,21.39,West,270,0.9,1.8,37,0.00,,,0.00,WUHU216HW,2013-03-07 11:31:00,
2013-03-07 04:36:00,34.2,10.4,21.39,West,270,1.1,1.8,37,0.00,,,0.00,WUHU216HW,2013-03-07 11:36:00,
2013-03-07 04:41:00,33.8,10.2,21.39,West,270,0.2,1.6,37,0.00,,,0.00,WUHU216HW,2013-03-07 11:41:00,
2013-03-07 04:46:00,33.7,10.0,21.39,West,270,3.8,3.8,37,0.00,,,0.00,WUHU216HW,2013-03-07 11:46:00,
2013-03-07 04:51:00,34.4,10.0,21.39,West,270,4.5,7.6,36,0.00,,,0.00,WUHU216HW,2013-03-07 11:51:00,
2013-03-07 04:56:00,34.6,10.2,21.40,ESE,113,0.0,7.6,36,0.00,,,0.00,WUHU216HW,2013-03-07 11:56:00,
2013-03-07 05:01:00,34.6,9.6,21.39,WNW,293,4.0,5.4,35,0.00,,,0.00,WUHU216HW,2013-03-07 12:01:00,
2013-03-07 05:06:00,34.4,10.0,21.40,SSE,158,1.3,6.9,36,0.00,,,0.00,WUHU216HW,2013-03-07 12:06:00,
2013-03-07 05:11:00,34.2,9.8,21.40,WNW,293,0.4,6.9,36,0.00,,,0.00,WUHU216HW,2013-03-07 12:11:00,
2013-03-07 05:16:00,34.0,10.4,21.40,NNW,338,0.0,1.8,37,0.00,,,0.00,WUHU216HW,2013-03-07 12:16:00,
2013-03-07 05:21:00,33.5,9.8,21.40,ENE,68,0.0,0.7,37,0.00,,,0.00,WUHU216HW,2013-03-07 12:21:00,
2013-03-07 05:26:00,32.9,10.0,21.40,West,270,0.4,2.7,38,0.00,,,0.00,WUHU216HW,2013-03-07 12:26:00,
2013-03-07 05:31:00,32.6,9.6,21.40,East,90,0.4,2.7,38,0.00,,,0.00,WUHU216HW,2013-03-07 12:31:00,
2013-03-07 05:36:00,32.6,9.6,21.40,East,90,0.4,3.4,38,0.00,,,0.00,WUHU216HW,2013-03-07 12:36:00,
2013-03-07 05:41:00,32.4,10.2,21.40,East,90,0.0,3.4,39,0.00,,,0.00,WUHU216HW,2013-03-07 12:41:00,
2013-03-07 05:46:00,32.0,9.2,21.41,WSW,248,0.0,1.3,38,0.00,,,0.00,WUHU216HW,2013-03-07 12:46:00,
2013-03-07 05:51:00,31.5,8.7,21.41,WSW,248,0.0,1.3,38,0.00,,,0.00,WUHU216HW,2013-03-07 12:51:00,
2013-03-07 05:56:00,31.1,9.0,21.41,WSW,248,0.0,0.0,39,0.00,,,0.00,WUHU216HW,2013-03-07 12:56:00,
2013-03-07 06:02:00,31.0,9.5,21.41,East,90,0.7,0.9,40,0.00,,,0.00,WUHU216HW,2013-03-07 13:02:00,
2013-03-07 06:07:00,30.6,9.2,21.41,East,90,0.0,0.9,40,0.00,,,0.00,WUHU216HW,2013-03-07 13:07:00,
2013-03-07 06:12:00,30.4,9.0,21.41,East,90,0.0,0.9,40,0.00,,,0.00,WUHU216HW,2013-03-07 13:12:00,
2013-03-07 06:17:00,30.1,8.6,21.41,East,90,0.4,0.9,40,0.00,,,0.00,WUHU216HW,2013-03-07 13:17:00,
2013-03-07 06:21:00,29.9,9.0,21.41,West,270,0.2,0.9,41,0.00,,,0.00,WUHU216HW,2013-03-07 13:21:00,
2013-03-07 06:26:00,29.7,8.8,21.42,East,90,0.2,0.7,41,0.00,,,0.00,WUHU216HW,2013-03-07 13:26:00,
2013-03-07 06:32:00,29.2,8.4,21.42,West,270,0.0,0.7,41,0.00,,,0.00,WUHU216HW,2013-03-07 13:32:00,
2013-03-07 06:37:00,29.0,8.7,21.42,ESE,113,0.0,0.4,42,0.00,,,0.00,WUHU216HW,2013-03-07 13:37:00,
2013-03-07 06:42:00,28.6,8.9,21.42,West,270,0.2,1.1,43,0.00,,,0.00,WUHU216HW,2013-03-07 13:42:00,
2013-03-07 06:47:00,28.4,8.7,21.42,ESE,113,0.0,1.1,43,0.00,,,0.00,WUHU216HW,2013-03-07 13:47:00,
2013-03-07 06:52:00,28.4,8.7,21.42,ESE,113,0.2,0.2,43,0.00,,,0.00,WUHU216HW,2013-03-07 13:52:00,
2013-03-07 06:57:00,28.4,8.7,21.42,West,270,0.0,1.1,43,0.00,,,0.00,WUHU216HW,2013-03-07 13:57:00,
2013-03-07 07:02:00,28.4,9.2,21.42,ENE,68,0.0,1.1,44,0.00,,,0.00,WUHU216HW,2013-03-07 14:02:00,
2013-03-07 07:07:00,28.6,9.4,21.43,East,90,0.7,0.7,44,0.00,,,0.00,WUHU216HW,2013-03-07 14:07:00,
2013-03-07 07:12:00,28.6,9.4,21.43,East,90,0.0,0.9,44,0.00,,,0.00,WUHU216HW,2013-03-07 14:12:00,
2013-03-07 07:17:00,28.8,9.5,21.43,ENE,68,0.0,0.9,44,0.00,,,0.00,WUHU216HW,2013-03-07 14:17:00,
2013-03-07 07:22:00,29.2,9.9,21.43,East,90,0.0,0.4,44,0.00,,,0.00,WUHU216HW,2013-03-07 14:22:00,
2013-03-07 07:27:00,29.3,10.5,21.43,East,90,0.0,0.4,45,0.00,,,0.00,WUHU216HW,2013-03-07 14:27:00,
2013-03-07 07:32:00,29.7,10.4,21.43,East,90,0.0,0.4,44,0.00,,,0.00,WUHU216HW,2013-03-07 14:32:00,
2013-03-07 07:37:00,29.9,10.5,21.43,East,90,0.0,0.2,44,0.00,,,0.00,WUHU216HW,2013-03-07 14:37:00,
2013-03-07 07:42:00,30.2,10.8,21.44,East,90,0.0,0.4,44,0.00,,,0.00,WUHU216HW,2013-03-07 14:42:00,
2013-03-07 07:47:00,30.6,11.2,21.44,East,90,0.0,0.4,44,0.00,,,0.00,WUHU216HW,2013-03-07 14:47:00,
2013-03-07 07:52:00,31.3,11.8,21.44,East,90,0.0,0.4,44,0.00,,,0.00,WUHU216HW,2013-03-07 14:52:00,
2013-03-07 07:57:00,31.7,11.6,21.43,East,90,0.0,0.4,43,0.00,,,0.00,WUHU216HW,2013-03-07 14:57:00,
2013-03-07 08:02:00,32.0,12.0,21.44,ENE,68,0.0,1.1,43,0.00,,,0.00,WUHU216HW,2013-03-07 15:02:00,
2013-03-07 08:07:00,32.6,12.4,21.44,ENE,68,0.0,1.1,43,0.00,,,0.00,WUHU216HW,2013-03-07 15:07:00,
2013-03-07 08:12:00,32.9,12.2,21.43,East,90,0.0,0.2,42,0.00,,,0.00,WUHU216HW,2013-03-07 15:12:00,
2013-03-07 08:17:00,33.5,12.8,21.43,East,90,0.0,0.2,42,0.00,,,0.00,WUHU216HW,2013-03-07 15:17:00,
2013-03-07 08:22:00,34.2,12.9,21.43,East,90,0.0,0.4,41,0.00,,,0.00,WUHU216HW,2013-03-07 15:22:00,
2013-03-07 08:27:00,34.9,13.6,21.43,ENE,68,0.0,0.4,41,0.00,,,0.00,WUHU216HW,2013-03-07 15:27:00,
2013-03-07 08:32:00,35.3,13.9,21.43,East,90,0.4,0.4,41,0.00,,,0.00,WUHU216HW,2013-03-07 15:32:00,
2013-03-07 08:37:00,35.6,14.2,21.43,East,90,0.4,0.9,41,0.00,,,0.00,WUHU216HW,2013-03-07 15:37:00,
2013-03-07 08:42:00,36.2,14.1,21.43,ENE,68,0.0,1.1,40,0.00,,,0.00,WUHU216HW,2013-03-07 15:42:00,
2013-03-07 08:47:00,36.4,14.3,21.43,East,90,0.4,1.1,40,0.00,,,0.00,WUHU216HW,2013-03-07 15:47:00,
2013-03-07 08:52:00,36.7,14.7,21.43,East,90,0.4,0.4,40,0.00,,,0.00,WUHU216HW,2013-03-07 15:52:00,
2013-03-07 08:57:00,37.3,14.5,21.43,East,90,0.0,0.4,39,0.00,,,0.00,WUHU216HW,2013-03-07 15:57:00,
2013-03-07 09:02:00,37.4,14.7,21.43,ENE,68,0.0,0.4,39,0.00,,,0.00,WUHU216HW,2013-03-07 16:02:00,
2013-03-07 09:07:00,37.8,14.3,21.43,WNW,293,0.0,0.4,38,0.00,,,0.00,WUHU216HW,2013-03-07 16:07:00,
2013-03-07 09:12:00,38.3,14.1,21.43,East,90,0.0,0.9,37,0.00,,,0.00,WUHU216HW,2013-03-07 16:12:00,
2013-03-07 09:17:00,38.9,14.1,21.43,East,90,0.9,1.8,36,0.00,,,0.00,WUHU216HW,2013-03-07 16:17:00,
2013-03-07 09:22:00,39.6,14.7,21.43,ENE,68,0.2,2.5,36,0.00,,,0.00,WUHU216HW,2013-03-07 16:22:00,
2013-03-07 09:27:00,40.3,13.3,21.43,NNE,23,2.2,3.4,33,0.00,,,0.00,WUHU216HW,2013-03-07 16:27:00,
2013-03-07 09:32:00,40.9,12.5,21.43,SSW,203,0.9,3.4,31,0.00,,,0.00,WUHU216HW,2013-03-07 16:32:00,
2013-03-07 09:37:00,41.6,13.8,21.43,WNW,293,0.4,2.7,32,0.00,,,0.00,WUHU216HW,2013-03-07 16:37:00,
2013-03-07 09:42:00,42.1,11.2,21.43,West,270,2.5,4.7,28,0.00,,,0.00,WUHU216HW,2013-03-07 16:42:00,
2013-03-07 09:47:00,42.1,8.5,21.43,West,270,4.5,9.6,25,0.00,,,0.00,WUHU216HW,2013-03-07 16:47:00,
2013-03-07 09:52:00,42.7,12.4,21.43,ENE,68,0.0,9.6,29,0.00,,,0.00,WUHU216HW,2013-03-07 16:52:00,
2013-03-07 09:57:00,43.2,13.0,21.43,West,270,0.2,4.5,29,0.00,,,0.00,WUHU216HW,2013-03-07 16:57:00,
2013-03-07 10:02:00,43.7,12.5,21.43,East,90,1.1,1.1,28,0.00,,,0.00,WUHU216HW,2013-03-07 17:02:00,
2013-03-07 10:07:00,44.3,13.9,21.43,North,0,0.2,1.1,29,0.00,,,0.00,WUHU216HW,2013-03-07 17:07:00,
2013-03-07 10:12:00,45.0,14.6,21.42,East,90,0.4,1.1,29,0.00,,,0.00,WUHU216HW,2013-03-07 17:12:00,
2013-03-07 10:17:00,45.4,14.0,21.43,SSW,203,0.2,1.6,28,0.00,,,0.00,WUHU216HW,2013-03-07 17:17:00,
2013-03-07 10:22:00,45.5,12.3,21.43,East,90,1.6,8.1,26,0.00,,,0.00,WUHU216HW,2013-03-07 17:22:00,
2013-03-07 10:27:00,45.7,13.3,21.42,ENE,68,1.1,8.1,27,0.00,,,0.00,WUHU216HW,2013-03-07 17:27:00,
2013-03-07 10:32:00,46.1,13.7,21.42,East,90,2.2,2.7,27,0.00,,,0.00,WUHU216HW,2013-03-07 17:32:00,
2013-03-07 10:37:00,46.4,14.0,21.43,East,90,0.7,2.7,27,0.00,,,0.00,WUHU216HW,2013-03-07 17:37:00,
2013-03-07 10:42:00,46.8,12.4,21.42,ESE,113,0.7,2.2,25,0.00,,,0.00,WUHU216HW,2013-03-07 17:42:00,
2013-03-07 10:47:00,47.0,12.6,21.42,East,90,2.7,3.4,25,0.00,,,0.00,WUHU216HW,2013-03-07 17:47:00,
2013-03-07 10:52:00,47.0,11.7,21.42,East,90,1.1,3.4,24,0.00,,,0.00,WUHU216HW,2013-03-07 17:52:00,
2013-03-07 10:57:00,46.8,11.5,21.42,East,90,2.0,6.3,24,0.00,,,0.00,WUHU216HW,2013-03-07 17:57:00,
2013-03-07 11:02:00,47.0,11.7,21.42,East,90,0.7,6.3,24,0.00,,,0.00,WUHU216HW,2013-03-07 18:02:00,
2013-03-07 11:07:00,46.6,8.7,21.42,West,270,3.1,6.9,21,0.00,,,0.00,WUHU216HW,2013-03-07 18:07:00,
2013-03-07 11:12:00,46.6,10.4,21.42,ENE,68,1.1,6.9,23,0.00,,,0.00,WUHU216HW,2013-03-07 18:12:00,
2013-03-07 11:17:00,47.0,10.8,21.42,ENE,68,1.1,3.4,23,0.00,,,0.00,WUHU216HW,2013-03-07 18:17:00,
2013-03-07 11:22:00,47.3,10.2,21.42,East,90,1.1,3.4,22,0.00,,,0.00,WUHU216HW,2013-03-07 18:22:00,
2013-03-07 11:27:00,47.7,10.5,21.42,North,0,1.8,5.1,22,0.00,,,0.00,WUHU216HW,2013-03-07 18:27:00,
2013-03-07 11:32:00,47.5,9.4,21.42,WSW,248,0.0,10.5,21,0.00,,,0.00,WUHU216HW,2013-03-07 18:32:00,
2013-03-07 11:37:00,47.7,11.3,21.42,ENE,68,0.4,10.5,23,0.00,,,0.00,WUHU216HW,2013-03-07 18:37:00,
2013-03-07 11:42:00,48.4,12.0,21.42,ESE,113,0.2,2.0,23,0.00,,,0.00,WUHU216HW,2013-03-07 18:42:00,
2013-03-07 11:47:00,48.2,6.0,21.41,SSE,158,5.8,11.9,18,0.00,,,0.00,WUHU216HW,2013-03-07 18:47:00,
2013-03-07 11:52:00,47.7,7.1,21.41,West,270,6.3,11.9,19,0.00,,,0.00,WUHU216HW,2013-03-07 18:52:00,
2013-03-07 11:57:00,47.9,10.6,21.42,East,90,0.4,11.0,22,0.00,,,0.00,WUHU216HW,2013-03-07 18:57:00,
2013-03-07 12:02:00,48.4,11.1,21.41,NE,45,2.5,5.6,22,0.00,,,0.00,WUHU216HW,2013-03-07 19:02:00,
2013-03-07 12:07:00,49.0,11.5,21.41,East,90,1.6,5.8,22,0.00,,,0.00,WUHU216HW,2013-03-07 19:07:00,
2013-03-07 12:12:00,49.3,10.0,21.41,North,0,4.0,5.8,20,0.00,,,0.00,WUHU216HW,2013-03-07 19:12:00,
2013-03-07 12:17:00,48.6,3.4,21.41,WSW,248,8.5,14.3,16,0.00,,,0.00,WUHU216HW,2013-03-07 19:17:00,
2013-03-07 12:23:00,47.7,4.1,21.41,West,270,4.7,14.3,17,0.00,,,0.00,WUHU216HW,2013-03-07 19:23:00,
2013-03-07 12:28:00,47.9,5.8,21.41,West,270,7.6,13.6,18,0.00,,,0.00,WUHU216HW,2013-03-07 19:28:00,
2013-03-07 12:33:00,48.2,6.0,21.41,West,270,1.3,7.6,18,0.00,,,0.00,WUHU216HW,2013-03-07 19:33:00,
2013-03-07 12:38:00,48.6,9.4,21.40,East,90,1.1,7.6,20,0.00,,,0.00,WUHU216HW,2013-03-07 19:38:00,
2013-03-07 12:43:00,49.3,10.0,21.40,West,270,2.7,4.0,20,0.00,,,0.00,WUHU216HW,2013-03-07 19:43:00,
2013-03-07 12:48:00,49.1,2.3,21.40,West,270,7.2,12.5,15,0.00,,,0.00,WUHU216HW,2013-03-07 19:48:00,
2013-03-07 12:53:00,48.8,6.5,21.40,West,270,2.2,12.5,18,0.00,,,0.00,WUHU216HW,2013-03-07 19:53:00,
2013-03-07 12:58:00,49.1,6.9,21.40,ESE,113,1.1,7.2,18,0.00,,,0.00,WUHU216HW,2013-03-07 19:58:00,
2013-03-07 13:03:00,49.7,8.8,21.39,East,90,1.8,3.4,19,0.00,,,0.00,WUHU216HW,2013-03-07 20:03:00,
2013-03-07 13:08:00,50.0,6.1,21.39,NNW,338,3.8,6.9,17,0.00,,,0.00,WUHU216HW,2013-03-07 20:08:00,
2013-03-07 13:13:00,50.0,6.1,21.39,WSW,248,2.9,6.9,17,0.00,,,0.00,WUHU216HW,2013-03-07 20:13:00,
2013-03-07 13:18:00,49.0,5.2,21.39,WNW,293,8.5,13.4,17,0.00,,,0.00,WUHU216HW,2013-03-07 20:18:00,
2013-03-07 13:23:00,48.6,6.4,21.39,West,270,2.5,13.4,18,0.00,,,0.00,WUHU216HW,2013-03-07 20:23:00,
2013-03-07 13:28:00,48.8,6.5,21.39,NNW,338,1.3,10.1,18,0.00,,,0.00,WUHU216HW,2013-03-07 20:28:00,
2013-03-07 13:33:00,49.1,6.9,21.39,West,270,4.7,5.4,18,0.00,,,0.00,WUHU216HW,2013-03-07 20:33:00,
2013-03-07 13:38:00,49.1,6.9,21.39,SSW,203,1.3,10.1,18,0.00,,,0.00,WUHU216HW,2013-03-07 20:38:00,
2013-03-07 13:43:00,49.3,10.0,21.39,West,270,0.4,10.1,20,0.00,,,0.00,WUHU216HW,2013-03-07 20:43:00,
2013-03-07 13:48:00,49.9,10.4,21.39,NE,45,0.2,2.9,20,0.00,,,0.00,WUHU216HW,2013-03-07 20:48:00,
2013-03-07 13:53:00,50.2,7.7,21.39,SW,225,3.6,3.6,18,0.00,,,0.00,WUHU216HW,2013-03-07 20:53:00,
2013-03-07 13:58:00,50.4,10.9,21.39,South,180,0.2,3.6,20,0.00,,,0.00,WUHU216HW,2013-03-07 20:58:00,
2013-03-07 14:03:00,50.6,9.5,21.39,West,270,0.4,2.7,19,0.00,,,0.00,WUHU216HW,2013-03-07 21:03:00,
2013-03-07 14:08:00,50.8,11.2,21.39,East,90,0.4,2.5,20,0.00,,,0.00,WUHU216HW,2013-03-07 21:08:00,
2013-03-07 14:13:00,51.1,10.0,21.39,WNW,293,1.1,2.5,19,0.00,,,0.00,WUHU216HW,2013-03-07 21:13:00,
2013-03-07 14:18:00,50.9,11.3,21.39,East,90,0.2,2.2,20,0.00,,,0.00,WUHU216HW,2013-03-07 21:18:00,
2013-03-07 14:23:00,50.8,11.2,21.39,East,90,0.4,2.0,20,0.00,,,0.00,WUHU216HW,2013-03-07 21:23:00,
2013-03-07 14:28:00,50.8,11.2,21.39,East,90,0.0,2.2,20,0.00,,,0.00,WUHU216HW,2013-03-07 21:28:00,
2013-03-07 14:33:00,51.1,11.5,21.39,NE,45,0.2,2.2,20,0.00,,,0.00,WUHU216HW,2013-03-07 21:33:00,
2013-03-07 14:38:00,51.1,11.5,21.39,ENE,68,0.2,1.1,20,0.00,,,0.00,WUHU216HW,2013-03-07 21:38:00,
2013-03-07 14:43:00,51.3,12.6,21.39,East,90,0.4,1.1,21,0.00,,,0.00,WUHU216HW,2013-03-07 21:43:00,
2013-03-07 14:48:00,51.3,12.6,21.39,East,90,0.0,1.3,21,0.00,,,0.00,WUHU216HW,2013-03-07 21:48:00,
2013-03-07 14:53:00,51.5,12.7,21.39,ESE,113,0.4,1.3,21,0.00,,,0.00,WUHU216HW,2013-03-07 21:53:00,
2013-03-07 14:58:00,51.3,8.7,21.39,East,90,0.2,3.8,18,0.00,,,0.00,WUHU216HW,2013-03-07 21:58:00,
2013-03-07 15:03:00,50.9,8.3,21.39,West,270,1.8,3.8,18,0.00,,,0.00,WUHU216HW,2013-03-07 22:03:00,
2013-03-07 15:08:00,50.8,11.2,21.39,West,270,0.7,2.0,20,0.00,,,0.00,WUHU216HW,2013-03-07 22:08:00,
2013-03-07 15:13:00,50.4,10.9,21.39,ESE,113,0.4,1.3,20,0.00,,,0.00,WUHU216HW,2013-03-07 22:13:00,
2013-03-07 15:18:00,50.6,11.1,21.39,East,90,0.2,1.3,20,0.00,,,0.00,WUHU216HW,2013-03-07 22:18:00,
2013-03-07 15:23:00,50.8,12.2,21.39,East,90,0.0,1.1,21,0.00,,,0.00,WUHU216HW,2013-03-07 22:23:00,
2013-03-07 15:28:00,51.1,11.5,21.39,WSW,248,0.2,0.4,20,0.00,,,0.00,WUHU216HW,2013-03-07 22:28:00,
2013-03-07 15:33:00,50.9,11.3,21.39,ENE,68,0.0,3.8,20,0.00,,,0.00,WUHU216HW,2013-03-07 22:33:00,
2013-03-07 15:38:00,50.9,11.3,21.39,East,90,0.4,3.8,20,0.00,,,0.00,WUHU216HW,2013-03-07 22:38:00,
2013-03-07 15:43:00,50.9,11.3,21.39,West,270,0.4,3.4,20,0.00,,,0.00,WUHU216HW,2013-03-07 22:43:00,
2013-03-07 15:48:00,50.4,10.9,21.39,West,270,0.7,3.4,20,0.00,,,0.00,WUHU216HW,2013-03-07 22:48:00,
2013-03-07 15:53:00,50.0,10.6,21.39,WSW,248,0.0,3.4,20,0.00,,,0.00,WUHU216HW,2013-03-07 22:53:00,
2013-03-07 15:58:00,49.9,10.4,21.39,East,90,0.4,3.4,20,0.00,,,0.00,WUHU216HW,2013-03-07 22:58:00,
2013-03-07 16:03:00,50.0,10.6,21.39,East,90,0.4,2.7,20,0.00,,,0.00,WUHU216HW,2013-03-07 23:03:00,
2013-03-07 16:08:00,50.0,10.6,21.39,West,270,1.1,2.7,20,0.00,,,0.00,WUHU216HW,2013-03-07 23:08:00,
2013-03-07 16:13:00,49.7,10.3,21.40,ESE,113,0.9,2.2,20,0.00,,,0.00,WUHU216HW,2013-03-07 23:13:00,
2013-03-07 16:18:00,49.3,10.0,21.39,West,270,0.4,2.2,20,0.00,,,0.00,WUHU216HW,2013-03-07 23:18:00,
2013-03-07 16:23:00,48.8,9.5,21.40,WNW,293,0.7,1.8,20,0.00,,,0.00,WUHU216HW,2013-03-07 23:23:00,
2013-03-07 16:28:00,48.6,10.3,21.40,West,270,1.8,1.8,21,0.00,,,0.00,WUHU216HW,2013-03-07 23:28:00,
2013-03-07 16:33:00,48.1,4.4,21.40,ESE,113,2.9,9.2,17,0.01,,,0.01,WUHU216HW,2013-03-07 23:33:00,
2013-03-07 16:38:00,47.9,5.8,21.40,West,270,0.4,9.2,18,0.01,,,0.01,WUHU216HW,2013-03-07 23:38:00,
2013-03-07 16:44:00,47.7,8.6,21.40,West,270,0.0,3.4,20,0.01,,,0.01,WUHU216HW,2013-03-07 23:44:00,
2013-03-07 16:49:00,47.7,8.6,21.40,West,270,0.0,1.1,20,0.01,,,0.01,WUHU216HW,2013-03-07 23:49:00,
2013-03-07 16:54:00,47.5,8.5,21.40,East,90,0.0,2.0,20,0.01,,,0.01,WUHU216HW,2013-03-07 23:54:00,
2013-03-07 16:59:00,47.3,9.2,21.40,NNE,23,0.0,2.0,21,0.01,,,0.01,WUHU216HW,2013-03-07 23:59:00,
2013-03-07 17:04:00,46.8,7.8,21.40,ESE,113,0.0,1.3,20,0.01,,,0.01,WUHU216HW,2013-03-08 00:04:00,
2013-03-07 17:09:00,46.8,8.7,21.40,East,90,0.0,1.3,21,0.01,,,0.01,WUHU216HW,2013-03-08 00:09:00,
2013-03-07 17:14:00,46.4,9.4,21.41,ESE,113,0.0,0.4,22,0.01,,,0.01,WUHU216HW,2013-03-08 00:14:00,
2013-03-07 17:19:00,45.7,9.7,21.41,ESE,113,0.0,0.4,23,0.01,,,0.01,WUHU216HW,2013-03-08 00:19:00,
2013-03-07 17:24:00,45.4,8.6,21.41,South,180,0.0,0.4,22,0.01,,,0.01,WUHU216HW,2013-03-08 00:24:00,
2013-03-07 17:29:00,44.8,9.9,21.41,South,180,0.0,0.4,24,0.00,,,0.01,WUHU216HW,2013-03-08 00:29:00,
2013-03-07 17:34:00,44.3,9.4,21.41,West,270,0.0,0.0,24,0.00,,,0.01,WUHU216HW,2013-03-08 00:34:00,
2013-03-07 17:39:00,43.9,10.0,21.41,SW,225,0.0,0.0,25,0.00,,,0.01,WUHU216HW,2013-03-08 00:39:00,
2013-03-07 17:44:00,43.4,10.4,21.41,South,180,0.0,0.2,26,0.00,,,0.01,WUHU216HW,2013-03-08 00:44:00,
2013-03-07 17:49:00,42.8,10.8,21.41,South,180,0.0,0.2,27,0.00,,,0.01,WUHU216HW,2013-03-08 00:49:00,
2013-03-07 17:55:00,42.5,10.5,21.41,South,180,0.0,0.0,27,0.00,,,0.01,WUHU216HW,2013-03-08 00:55:00,
2013-03-07 18:00:00,41.9,9.2,21.41,West,270,2.5,2.5,26,0.00,,,0.01,WUHU216HW,2013-03-08 01:00:00,
2013-03-07 18:05:00,41.0,9.4,21.41,West,270,1.6,6.0,27,0.00,,,0.01,WUHU216HW,2013-03-08 01:05:00,
2013-03-07 18:10:00,40.5,9.8,21.41,West,270,0.9,6.0,28,0.00,,,0.01,WUHU216HW,2013-03-08 01:10:00,
2013-03-07 18:15:00,40.1,9.5,21.41,West,270,0.4,1.8,28,0.00,,,0.01,WUHU216HW,2013-03-08 01:15:00,
2013-03-07 18:20:00,40.0,10.2,21.42,West,270,0.0,1.8,29,0.00,,,0.01,WUHU216HW,2013-03-08 01:20:00,
2013-03-07 18:25:00,39.2,9.5,21.42,West,270,0.7,3.4,29,0.00,,,0.01,WUHU216HW,2013-03-08 01:25:00,
2013-03-07 18:30:00,38.3,8.7,21.42,WSW,248,0.2,4.0,29,0.00,,,0.01,WUHU216HW,2013-03-08 01:30:00,
2013-03-07 18:35:00,38.2,8.6,21.42,NW,315,0.0,4.0,29,0.00,,,0.01,WUHU216HW,2013-03-08 01:35:00,
2013-03-07 18:40:00,38.0,9.3,21.42,West,270,2.2,2.2,30,0.00,,,0.01,WUHU216HW,2013-03-08 01:40:00,
2013-03-07 18:45:00,37.4,9.5,21.42,NW,315,0.9,3.8,31,0.00,,,0.01,WUHU216HW,2013-03-08 01:45:00,
2013-03-07 18:50:00,37.1,9.2,21.42,NNW,338,0.0,3.8,31,0.00,,,0.01,WUHU216HW,2013-03-08 01:50:00,
2013-03-07 18:55:00,37.1,9.2,21.42,East,90,0.0,0.9,31,0.00,,,0.01,WUHU216HW,2013-03-08 01:55:00,
2013-03-07 19:00:00,36.9,9.0,21.43,East,90,0.0,0.4,31,0.00,,,0.01,WUHU216HW,2013-03-08 02:00:00,
2013-03-07 19:05:00,36.7,8.8,21.43,WSW,248,0.2,0.4,31,0.00,,,0.01,WUHU216HW,2013-03-08 02:05:00,
2013-03-07 19:10:00,36.5,8.6,21.43,SSE,158,0.0,0.4,31,0.00,,,0.01,WUHU216HW,2013-03-08 02:10:00,
2013-03-07 19:15:00,36.4,8.5,21.43,SSE,158,0.0,0.2,31,0.00,,,0.01,WUHU216HW,2013-03-08 02:15:00,
2013-03-07 19:20:00,36.0,8.2,21.43,West,270,0.2,0.4,31,0.00,,,0.01,WUHU216HW,2013-03-08 02:20:00,
2013-03-07 19:25:00,35.6,7.8,21.43,West,270,0.0,0.4,31,0.00,,,0.01,WUHU216HW,2013-03-08 02:25:00,
2013-03-07 19:30:00,35.6,7.8,21.43,West,270,0.0,0.2,31,0.00,,,0.01,WUHU216HW,2013-03-08 02:30:00,
2013-03-07 19:35:00,35.5,8.4,21.43,ENE,68,0.0,0.2,32,0.00,,,0.01,WUHU216HW,2013-03-08 02:35:00,
2013-03-07 19:40:00,35.3,7.6,21.43,West,270,0.7,3.4,31,0.00,,,0.01,WUHU216HW,2013-03-08 02:40:00,
2013-03-07 19:45:00,34.9,7.9,21.43,West,270,0.0,3.4,32,0.00,,,0.01,WUHU216HW,2013-03-08 02:45:00,
2013-03-07 19:50:00,34.6,8.3,21.43,WSW,248,0.4,4.0,33,0.00,,,0.01,WUHU216HW,2013-03-08 02:50:00,
2013-03-07 19:55:00,34.2,7.9,21.43,ESE,113,0.0,4.0,33,0.00,,,0.01,WUHU216HW,2013-03-08 02:55:00,
2013-03-07 20:00:00,34.0,8.5,21.43,West,270,0.0,1.6,34,0.00,,,0.01,WUHU216HW,2013-03-08 03:00:00,
2013-03-07 20:05:00,33.8,8.9,21.43,SW,225,0.4,1.3,35,0.00,,,0.01,WUHU216HW,2013-03-08 03:05:00,
2013-03-07 20:10:00,33.8,8.9,21.43,South,180,0.0,1.3,35,0.00,,,0.01,WUHU216HW,2013-03-08 03:10:00,
2013-03-07 20:15:00,33.5,8.6,21.43,North,0,0.0,0.4,35,0.00,,,0.01,WUHU216HW,2013-03-08 03:15:00,
2013-03-07 20:20:00,33.5,8.6,21.43,SW,225,0.0,1.1,35,0.00,,,0.01,WUHU216HW,2013-03-08 03:20:00,
2013-03-07 20:25:00,33.1,8.3,21.43,WSW,248,0.0,1.1,35,0.00,,,0.01,WUHU216HW,2013-03-08 03:25:00,
2013-03-07 20:30:00,32.8,7.9,21.44,West,270,4.0,4.0,35,0.00,,,0.01,WUHU216HW,2013-03-08 03:30:00,
2013-03-07 20:35:00,32.8,8.6,21.44,SSW,203,0.0,4.0,36,0.00,,,0.01,WUHU216HW,2013-03-08 03:35:00,
2013-03-07 20:40:00,32.4,8.3,21.44,West,270,0.0,4.0,36,0.00,,,0.01,WUHU216HW,2013-03-08 03:40:00,
2013-03-07 20:45:00,32.0,7.9,21.44,West,270,0.0,1.1,36,0.00,,,0.01,WUHU216HW,2013-03-08 03:45:00,
2013-03-07 20:51:00,31.9,7.7,21.44,ENE,68,0.2,0.4,36,0.00,,,0.01,WUHU216HW,2013-03-08 03:51:00,
2013-03-07 20:56:00,31.7,8.2,21.44,ENE,68,0.0,0.4,37,0.00,,,0.01,WUHU216HW,2013-03-08 03:56:00,
2013-03-07 21:01:00,31.3,7.9,21.45,NNW,338,0.0,0.2,37,0.00,,,0.01,WUHU216HW,2013-03-08 04:01:00,
2013-03-07 21:06:00,31.1,7.7,21.45,NNE,23,0.0,0.2,37,0.00,,,0.01,WUHU216HW,2013-03-08 04:06:00,
2013-03-07 21:11:00,31.0,7.6,21.45,East,90,0.4,0.4,37,0.00,,,0.01,WUHU216HW,2013-03-08 04:11:00,
2013-03-07 21:16:00,30.8,7.4,21.45,NE,45,0.2,1.1,37,0.00,,,0.01,WUHU216HW,2013-03-08 04:16:00,
2013-03-07 21:21:00,30.6,7.9,21.45,ENE,68,0.0,1.1,38,0.00,,,0.01,WUHU216HW,2013-03-08 04:21:00,
2013-03-07 21:26:00,30.4,7.8,21.45,ENE,68,0.0,0.9,38,0.00,,,0.01,WUHU216HW,2013-03-08 04:26:00,
2013-03-07 21:31:00,30.2,7.6,21.45,ENE,68,0.0,0.0,38,0.00,,,0.01,WUHU216HW,2013-03-08 04:31:00,
2013-03-07 21:36:00,29.9,7.8,21.45,ENE,68,0.0,0.0,39,0.00,,,0.01,WUHU216HW,2013-03-08 04:36:00,
2013-03-07 21:41:00,29.9,7.8,21.46,North,0,0.0,0.0,39,0.00,,,0.01,WUHU216HW,2013-03-08 04:41:00,
2013-03-07 21:46:00,29.5,7.6,21.46,North,0,0.0,0.0,39,0.00,,,0.01,WUHU216HW,2013-03-08 04:46:00,
2013-03-07 21:51:00,29.3,7.4,21.45,North,0,0.0,0.0,39,0.00,,,0.01,WUHU216HW,2013-03-08 04:51:00,
2013-03-07 21:56:00,29.2,8.4,21.45,WNW,293,0.4,0.4,41,0.00,,,0.01,WUHU216HW,2013-03-08 04:56:00,
2013-03-07 22:00:00,29.2,7.2,21.45,West,270,0.2,1.3,39,0.00,,,0.01,WUHU216HW,2013-03-08 05:00:00,
2013-03-07 22:02:00,29.0,7.0,21.45,NE,45,0.0,1.3,39,0.00,,,0.01,WUHU216HW,2013-03-08 05:02:00,
2013-03-07 22:07:00,29.0,7.7,21.45,ESE,113,0.0,1.3,40,0.00,,,0.01,WUHU216HW,2013-03-08 05:07:00,
2013-03-07 22:12:00,28.8,7.6,21.45,ESE,113,0.0,0.4,40,0.00,,,0.01,WUHU216HW,2013-03-08 05:12:00,
2013-03-07 22:17:00,28.6,7.4,21.45,ESE,113,0.0,0.0,40,0.00,,,0.01,WUHU216HW,2013-03-08 05:17:00,
2013-03-07 22:22:00,28.4,7.2,21.45,West,270,0.0,0.4,40,0.00,,,0.01,WUHU216HW,2013-03-08 05:22:00,
2013-03-07 22:27:00,28.3,7.0,21.45,West,270,0.0,0.4,40,0.00,,,0.01,WUHU216HW,2013-03-08 05:27:00,
2013-03-07 22:32:00,28.3,7.6,21.46,West,270,0.0,0.2,41,0.00,,,0.01,WUHU216HW,2013-03-08 05:32:00,
2013-03-07 22:37:00,27.9,7.2,21.45,West,270,0.0,0.2,41,0.00,,,0.01,WUHU216HW,2013-03-08 05:37:00,
2013-03-07 22:42:00,27.9,6.8,21.45,West,270,0.0,0.2,40,0.00,,,0.01,WUHU216HW,2013-03-08 05:42:00,
2013-03-07 22:47:00,27.9,7.2,21.45,West,270,0.0,0.4,41,0.00,,,0.01,WUHU216HW,2013-03-08 05:47:00,
2013-03-07 22:52:00,27.9,7.2,21.45,West,270,0.4,0.4,41,0.00,,,0.01,WUHU216HW,2013-03-08 05:52:00,
2013-03-07 22:57:00,28.1,7.4,21.45,East,90,0.0,0.7,41,0.00,,,0.01,WUHU216HW,2013-03-08 05:57:00,
2013-03-07 23:02:00,27.7,7.0,21.45,East,90,0.0,0.7,41,0.00,,,0.01,WUHU216HW,2013-03-08 06:02:00,
2013-03-07 23:07:00,27.5,7.4,21.45,East,90,0.2,0.2,42,0.00,,,0.01,WUHU216HW,2013-03-08 06:07:00,
2013-03-07 23:12:00,27.2,7.0,21.45,East,90,0.0,0.2,42,0.00,,,0.01,WUHU216HW,2013-03-08 06:12:00,
2013-03-07 23:17:00,27.0,6.8,21.45,WSW,248,0.0,0.4,42,0.00,,,0.01,WUHU216HW,2013-03-08 06:17:00,
2013-03-07 23:22:00,27.0,6.8,21.45,NW,315,0.0,0.4,42,0.00,,,0.01,WUHU216HW,2013-03-08 06:22:00,
2013-03-07 23:27:00,26.6,6.6,21.45,East,90,0.0,0.2,42,0.00,,,0.01,WUHU216HW,2013-03-08 06:27:00,
2013-03-07 23:32:00,26.6,7.0,21.45,East,90,0.0,0.2,43,0.00,,,0.01,WUHU216HW,2013-03-08 06:32:00,
2013-03-07 23:37:00,26.3,6.8,21.45,East,90,0.0,0.2,43,0.00,,,0.01,WUHU216HW,2013-03-08 06:37:00,
2013-03-07 23:42:00,25.9,6.4,21.45,West,270,0.0,0.7,43,0.00,,,0.01,WUHU216HW,2013-03-08 06:42:00,
2013-03-07 23:47:00,25.6,6.0,21.45,WNW,293,0.0,1.1,43,0.00,,,0.01,WUHU216HW,2013-03-08 06:47:00,
2013-03-07 23:52:00,25.6,6.6,21.45,WNW,293,0.0,1.1,44,0.00,,,0.01,WUHU216HW,2013-03-08 06:52:00,
2013-03-07 23:57:00,25.6,6.6,21.45,WNW,293,0.0,0.2,44,0.00,,,0.01,WUHU216HW,2013-03-08 06:57:00,